{"data":{"norad_id":64416,"epoch":"2026-09-20T12:12:00.710784Z","epoch_age_seconds":133636,"freshness":"FRESH","line1":"1 64416U 25129E   26263.50834156  .00007599  00000+0  26842-3 0  9995","line2":"2 64416  70.0004 300.6836 0003396 275.2580  84.8208 15.29593056 70530","mean_motion":15.29593056,"eccentricity":0.0003396,"inclination_deg":70.0004,"raan_deg":300.6836,"arg_perigee_deg":275.258,"mean_anomaly_deg":84.8208,"bstar":0.00026842,"rev_number":7053,"period_min":94.14268679839,"perigee_km":474.6998800205,"apogee_km":479.35590801651,"semimajor_km":6855.1648940185,"source":"CELESTRAK","updated_at":"2026-09-21T09:00:35.346619Z"}}